Weather in Manchester

United Kingdom     53°28′50″N   2°14′52″W
temp.,
°C
wind,
m/s
gust,
m/s
humid.,
%
clouds,
%
prec.,
mm/h
press.,
hPa
HPBL,
m
17 april, sat
sat1701:00+5sse13716 0.0 103193
04:00+4s11748 0.0 103142
07:00+4s017581 0.0 103161
10:00+8s115668 0.0 1030556
13:00+13sw12427 0.0 10291535
16:00+14wnw013829 0.0 10271824
19:00+12s124882 0.0 1026846
22:00+10s2357100 0.0 1027480
18 april, sun
sun1801:00+8s235596 0.0 1026347
04:00+6s1365100 0.0 1025152
07:00+5s1267100 0.0 1025180
10:00+8s1257100 0.0 1025521
13:00+12ssw2248100 0.0 10241301
16:00+13ssw224499 0.0 10231730
19:00+12ssw115378 0.1 1023564
22:00+9ese136215 0.0 1024111
19 april, mon
mon1901:00+6ene226878 0.0 102370
04:00+5ene127881 0.0 102345
07:00+5ene12765 0.0 102387
10:00+10se236011 0.0 1022850
13:00+12sse345793 0.0 10211488
16:00+12s3459100 0.1 10191106
19:00+11se1271100 0.2 1019199
22:00+10se1179100 0.3 102031
20 april, tue
tue2001:00+9sse1181100 0.3 101918
04:00+8ssw1183100 0.1 101918
07:00+8ssw1185100 0.2 101921
10:00+9wsw1280100 0.1 1019123
13:00+11w2369100 0.3 1019462
16:00+12nw5561100 0.1 10191078
19:00+10nw47726 0.1 1020741
22:00+7nw269068 0.0 1020391
21 april, wed
wed2101:00+7ne4882100 0.0 1022506
04:00+6ne26717 0.0 1022362
07:00+4nne24744 0.0 1024163
10:00+9nne34505 0.0 10251224
13:00+11nne23375 0.0 10241573
16:00+13nnw23375 0.0 10241835
19:00+10nw44555 0.0 1025614
22:00+6n12710 0.0 1026105